Regional Weather Roundup
Issued by NWS Portland, ME

Home | Current Version | Previous Version | Text Only | Print | Product List | Glossary On
Versions: 1 2 3 4 5 6 7 8 9 10 11 12 13 14 15 16 17 18 19 20 21 22 23 24 25 26 27 28 29 30 31 32 33 34 35 36 37 38 39 40 41 42 43 44 45 46 47 48 49 50
000
ASUS41 KGYX 302210
RWRGYX
WEATHER ROUNDUP FOR MAINE AND NEW HAMPSHIRE
NATIONAL WEATHER SERVICE GRAY ME
600 PM EDT TUE JUN 30 2015

MEZ002-005-006-010-012-015-018-020-021-024-026-027-029-302300-
MAINE

CITY           SKY/WX    TMP DP  RH WIND       PRES   REMARKS
PORTLAND       PTSUNNY   68  57  68 S8        29.96F
SANFORD        PTSUNNY   70  55  60 SE5       29.96F
BAR HARBOR     SUNNY     70  61  73 S14       29.97R
WISCASSET      MOSUNNY   70  58  65 S5        29.97F
ROCKLAND       SUNNY     70  59  68 S5        29.96S
FRYEBURG       CLOUDY    75  60  59 CALM      29.95F
LEWISTONAUBURN PTSUNNY   72  57  60 S8        29.96S
AUGUSTA        MOSUNNY   74  60  61 S7        29.96S
BANGOR         MOSUNNY   74  59  59 S12       29.95S
GREENVILLE       N/A     71  59  65 CALM      29.94S
MILLINOCKET    SUNNY     77  57  50 S6        29.94S
HOULTON        SUNNY     74  54  49 SW6       29.91F
PRESQUE ISLE   SUNNY     75  50  41 CALM      29.92S
FRENCHVILLE    SUNNY     70  54  56 SE6       29.92F
CARIBOU        SUNNY     74  51  44 SW6       29.91S
$$

NHZ002-005-008-009-011-012-014-302300-
NEW HAMPSHIRE

CITY           SKY/WX    TMP DP  RH WIND       PRES   REMARKS
PORTSMOUTH     PTSUNNY   68  57  66 SE12      29.94F
ROCHESTER      LGT RAIN  72  60  66 S5        29.94F
NASHUA         LGT RAIN  72  68  87 CALM      29.94S
MANCHESTER     CLOUDY    77  61  57 SE12      29.92S
CONCORD        CLOUDY    75  60  59 E3        29.93F
LACONIA        CLOUDY    70  63  78 E3        29.94F
PLYMOUTH       CLOUDY    69  66  90 CALM      29.95S
BERLIN         LGT RAIN  70  58  65 S7        29.96S
WHITEFIELD     LGT RAIN  67  60  78 CALM      29.96F
JAFFREY        CLOUDY    69  65  86 CALM      29.96F
KEENE          CLOUDY    70  63  78 CALM      29.94S
LEBANON        CLOUDY    67  62  84 N5        29.94F
MT WASHINGTON  LGT RAIN  48  46  93 SE3         N/A
$$

VTZ005-007-008-302300-
VERMONT

CITY           SKY/WX    TMP DP  RH WIND       PRES   REMARKS
ST JOHNSBURY     N/A     66  59  78 MISG      29.94S
MONTPELIER     CLOUDY    64  59  83 CALM      29.99F
BURLINGTON     LGT RAIN  65  59  81 S7        29.91F
$$

MAZ007-012-024-CTZ003-RIZ002-NYZ038-NYZ072-302300-
SOUTHERN NEW ENGLAND AND NY

CITY           SKY/WX    TMP DP  RH WIND       PRES   REMARKS
BOSTON         MOSUNNY   68  61  78 NE8       29.95F
WORCESTER      MOSUNNY   76  58  53 S9        29.96F
NANTUCKET      SUNNY     70  60  70 S5        29.99S
PROVIDENCE     PTSUNNY   78  59  51 S10       29.96S
HARTFORD       PTSUNNY   78  56  46 S18       29.90F
ALBANY         PTSUNNY   70  65  84 N7        29.88F
NEW YORK CITY  CLOUDY    77  63  61 S17G24    29.87F
$$

ANZ081-ANZ082-ANZ150-NHZ014-MEZ023>029-302300-
COASTAL MARINE OBSERVATIONS

STATION/POSITION TIME  TEMP    WIND        PRES    WAVE
                       AIR SEA DIR/SP/G            HT/PER
                 (UTC) (F)     (DEG/KT/KT) (MB)    (FT/S)
MOUNT DESERT ROC 2200   60     180/ 12/ 13 1015.6R
MATINICUS ROCK   2200   60     220/ 12/ 12 1015.1F
ISLE OF SHOALS   2200   64     130/ 17/ 17 1013.5F
JEFFREYS LEDGE   2103      59                N/A     4/ 9
CASHES LEDGE BUO 2150   61 60              1015.3F   4/ 8
GEORGES BANK BUO 2150   64 61   CALM  /  2 1015.7F   5/ 7
$$

.............KEY..............
   WCI - WIND CHILL
   TC  - TEMPERATURE IN CELSIUS
   VSB - VISIBILITY IN MILES
   HX  - HEAT INDEX
   FAIR- INDICATES FEW OR NO CLOUDS BELOW 12,000 FT, WITH NO
         SIGNIFICANT WEATHER AND/OR OBSTRUCTIONS TO VISIBILITY.




USA.gov is the U.S. government's official web portal to all federal, state and local government web resources and services.